Weather Roundup
Issued by NWS Chicago, IL

Home | Current Version | Previous Version | Graphics & Text | Print | Product List | Glossary On
Versions: 1 2 3 4 5 6 7 8 9 10 11 12 13 14 15 16 17 18 19 20 21 22 23 24 25 26 27 28 29 30 31 32 33 34 35 36 37 38 39 40 41 42 43 44 45 46 47 48 49 50
000
NZUS59 KLOT 040422
HRRLOT

CHICAGO AREA WEATHER ROUNDUP
NATIONAL WEATHER SERVICE CHICAGO/ROMEOVILLE IL
1100 PM CDT THU SEP 03 2015

NOTE: "FAIR" INDICATES FEW OR NO CLOUDS BELOW 12,000 FEET WITH NO
SIGNIFICANT WEATHER AND/OR OBSTRUCTIONS TO VISIBILITY.

* THESE STATIONS ARE NOT UNDER NWS QUALITY CONTROL. THEY ALSO MAY NOT
  REPORT WEATHER SUCH AS PRECIPITATION OR FOG.

ILZ005-006-012>014-019>023-040500-
NORTHEAST ILLINOIS

CITY           SKY/WX    TMP DP  RH WIND       PRES   REMARKS
OHARE          MOCLDY    72  67  84 E9        29.96R
MIDWAY         MOCLDY    75  66  73 NE9       29.95R
AURORA         MOCLDY    72  68  87 E6        29.95R
LANSING*       PTCLDY    72  67  86 NE7       29.96S
JOLIET*        PTCLDY    75  71  85 NE6       29.95R FOG
WAUKEGAN       MOCLDY    68  66  93 NE8       29.96R
DUPAGE AIRPORT MOCLDY    72  65  78 NE7       29.95R
WHEELING       MOCLDY    71  67  87 CALM      29.97R
KANKAKEE*      MOCLDY    73  69  86 SW3       29.94R
MORRIS*        PTCLDY    74  70  88 NE3       29.93R
LEWIS AIRPORT* PTCLDY    73  67  82 E6        29.96R
NORTHERLY IS     N/A     70  66  87 N5          N/A
$$

WIZ051-052-058>065-066-070>072-040500-
SOUTHEAST WISCONSIN

CITY           SKY/WX    TMP DP  RH WIND       PRES   REMARKS
MILWAUKEE      MOCLDY    67  64  90 N3        29.96R
KENOSHA*       CLOUDY    69  65  86 NE6       29.97R
RACINE*        MOCLDY    66  63  90 CALM      29.99R
BURLINGTON     CLOUDY    67  64  87 NE3       29.96S
WAUKESHA       CLOUDY    68  63  83 CALM      29.98R
WEST BEND      CLEAR     63  63 100 CALM      29.97R
$$

INZ001>003-010>013-019-020-040500-
NORTHWEST INDIANA

CITY           SKY/WX    TMP DP  RH WIND       PRES   REMARKS
GARY*          PTCLDY    73  68  83 NE9       29.97R
MICHIGAN CITY* NOT AVBL
RENSSELAER*    NOT AVBL
VALPARAISO     CLEAR     72  67  84 N5        29.96R
$$

LMZ740>746-040500-
SOUTHERN LAKE MICHIGAN

STATION/POSITION TIME  SKY/WX   TEMP WIND        PRES    VSBY
                                AIR  DIR/SP/G
                 (UTC)          (F)  (DEG/KT/KT) (MB)    (MI)
HARRISON CRIB    0400            71   40/  8/  9   N/A
BURNHAM HARBOR   0400            70  360/  4/  7   N/A
CALUMET HARBOR   0400            72   20/  6/  9   N/A
BURNS HARBOR     0300            73   40/ 11/ 13 1014.2R
MICHIGAN CITY    0400            71   10/ 12/ 13   N/A
$$

ABBREVIATIONS USED IN REMARKS
   TC - TEMPERATURE IN CELSIUS
  WCI - WIND CHILL INDEX
   HX - HEAT INDEX
  VSB - VISIBILITY
$$



USA.gov is the U.S. government's official web portal to all federal, state and local government web resources and services.